| time (UTC) | temp F | wind direction | speed MPH | gust MPH | rain 1hr in | rain 24hr in | rain mn in | humidity % | barometer mb |
| 20260508172037 | 68 | 248 | 1.0 | 3.0 | 0.00 | 0.00 | 0.00 | 56 | 1014.1 |
| 20260508171016 | 68 | 248 | 1.0 | 3.0 | 0.00 | 0.00 | 0.00 | 53 | 1014.2 |
| 20260508170036 | 69 | 225 | 2.0 | 4.0 | 0.00 | 0.00 | 0.00 | 52 | 1014.3 |
| 20260508165016 | 69 | 225 | 2.0 | 4.0 | 0.00 | 0.00 | 0.00 | 52 | 1014.2 |
| 20260508164036 | 69 | 158 | 1.0 | 3.0 | 0.00 | 0.00 | 0.00 | 51 | 1014.2 |
| 20260508163016 | 69 | 113 | 1.0 | 3.0 | 0.00 | 0.00 | 0.00 | 49 | 1014.2 |
| 20260508162016 | 69 | 113 | 1.0 | 3.0 | 0.00 | 0.00 | 0.00 | 48 | 1014.1 |
| 20260508161016 | 69 | 113 | 2.0 | 6.0 | 0.00 | 0.00 | 0.00 | 47 | 1014.0 |
| 20260508160017 | 70 | 135 | 1.0 | 3.0 | 0.00 | 0.00 | 0.00 | 48 | 1014.0 |
| 20260508155036 | 70 | 113 | 1.0 | 5.0 | 0.00 | 0.00 | 0.00 | 48 | 1013.9 |
| 20260508154016 | 70 | 90 | 2.0 | 7.0 | 0.00 | 0.00 | 0.00 | 48 | 1013.9 |
| 20260508153016 | 70 | 113 | 1.0 | 4.0 | 0.00 | 0.00 | 0.00 | 49 | 1013.9 |
| 20260508152036 | 71 | 135 | 1.0 | 5.0 | 0.00 | 0.00 | 0.00 | 47 | 1013.9 |
| 20260508151016 | 71 | 135 | 2.0 | 5.0 | 0.00 | 0.00 | 0.00 | 48 | 1013.9 |
| 20260508150018 | 71 | 135 | 1.0 | 5.0 | 0.00 | 0.00 | 0.00 | 48 | 1013.8 |
| 20260508145018 | 71 | 135 | 2.0 | 5.0 | 0.00 | 0.00 | 0.00 | 47 | 1013.8 |
| 20260508144016 | 71 | 113 | 1.0 | 4.0 | 0.00 | 0.00 | 0.00 | 45 | 1013.9 |
| 20260508143016 | 72 | 203 | 1.0 | 3.0 | 0.00 | 0.00 | 0.00 | 45 | 1013.9 |
| 20260508142017 | 73 | 113 | 1.0 | 5.0 | 0.00 | 0.00 | 0.00 | 45 | 1014.1 |
| 20260508141036 | 73 | 113 | 2.0 | 5.0 | 0.00 | 0.00 | 0.00 | 45 | 1014.1 |
| 20260508140016 | 73 | 113 | 2.0 | 6.0 | 0.00 | 0.00 | 0.00 | 44 | 1014.0 |
| 20260508135016 | 74 | 203 | 2.0 | 6.0 | 0.00 | 0.00 | 0.00 | 42 | 1014.0 |
| 20260508134016 | 74 | 203 | 2.0 | 5.0 | 0.00 | 0.00 | 0.00 | 43 | 1014.1 |
| 20260508133015 | 74 | 135 | 2.0 | 7.0 | 0.00 | 0.00 | 0.00 | 45 | 1014.0 |
| 20260508132015 | 74 | 113 | 3.0 | 9.0 | 0.00 | 0.00 | 0.00 | 44 | 1014.0 |
| 20260508131015 | 74 | 113 | 1.0 | 4.0 | 0.00 | 0.00 | 0.00 | 42 | 1014.1 |
| 20260508130015 | 73 | 113 | 2.0 | 6.0 | 0.00 | 0.00 | 0.00 | 44 | 1014.1 |
| 20260508125036 | 74 | 203 | 2.0 | 3.0 | 0.00 | 0.00 | 0.00 | 42 | 1014.0 |
| 20260508124056 | 74 | 113 | 2.0 | 12.0 | 0.00 | 0.00 | 0.00 | 45 | 1014.0 |
| 20260508123016 | 73 | 113 | 3.0 | 8.0 | 0.00 | 0.00 | 0.00 | 44 | 1014.0 |
| 20260508122015 | 73 | 113 | 2.0 | 8.0 | 0.00 | 0.00 | 0.00 | 45 | 1014.0 |
| 20260508121016 | 73 | 135 | 1.0 | 5.0 | 0.00 | 0.00 | 0.00 | 45 | 1014.0 |
| 20260508120016 | 73 | 203 | 2.0 | 4.0 | 0.00 | 0.00 | 0.00 | 45 | 1013.9 |
| 20260508115017 | 72 | 68 | 3.0 | 8.0 | 0.00 | 0.00 | 0.00 | 43 | 1014.0 |
| 20260508114017 | 73 | 225 | 3.0 | 9.0 | 0.00 | 0.00 | 0.00 | 43 | 1014.0 |
| 20260508113017 | 73 | 113 | 3.0 | 7.0 | 0.00 | 0.00 | 0.00 | 43 | 1014.0 |
| 20260508112017 | 73 | 113 | 2.0 | 6.0 | 0.00 | 0.00 | 0.00 | 45 | 1013.9 |
| 20260508111019 | 74 | 113 | 2.0 | 5.0 | 0.00 | 0.00 | 0.00 | 43 | 1013.9 |
| 20260508110017 | 74 | 225 | 2.0 | 7.0 | 0.00 | 0.00 | 0.00 | 43 | 1014.0 |
| 20260508105057 | 73 | 113 | 2.0 | 6.0 | 0.00 | 0.00 | 0.00 | 46 | 1014.0 |
| 20260508104017 | 73 | 113 | 2.0 | 6.0 | 0.00 | 0.00 | 0.00 | 48 | 1014.2 |
| 20260508103017 | 73 | 225 | 2.0 | 6.0 | 0.00 | 0.00 | 0.00 | 48 | 1014.1 |
| 20260508102019 | 73 | 225 | 3.0 | 7.0 | 0.00 | 0.00 | 0.00 | 46 | 1014.1 |
| 20260508101017 | 73 | 113 | 2.0 | 5.0 | 0.00 | 0.00 | 0.00 | 49 | 1014.1 |
| 20260508100037 | 72 | 225 | 2.0 | 5.0 | 0.00 | 0.00 | 0.00 | 48 | 1014.0 |
| 20260508095038 | 72 | 203 | 2.0 | 5.0 | 0.00 | 0.00 | 0.00 | 49 | 1014.0 |
| 20260508094017 | 71 | 113 | 2.0 | 5.0 | 0.00 | 0.00 | 0.00 | 51 | 1014.1 |
| 20260508093037 | 70 | 225 | 2.0 | 5.0 | 0.00 | 0.00 | 0.00 | 50 | 1014.1 |
| 20260508092039 | 70 | 113 | 1.0 | 5.0 | 0.00 | 0.00 | 0.00 | 52 | 1014.0 |
| 20260508091057 | 70 | 0.0 | 2.0 | 0.00 | 0.00 | 0.00 | 54 | 1013.9 | |
| 20260508090017 | 69 | 0.0 | 0.0 | 0.00 | 0.00 | 0.00 | 54 | 1013.9 | |
| 20260508085017 | 68 | 0.0 | 0.0 | 0.00 | 0.00 | 0.00 | 60 | 1013.8 | |
| 20260508084017 | 67 | 0.0 | 0.0 | 0.00 | 0.00 | 0.00 | 64 | 1013.8 | |
| 20260508083018 | 65 | 0.0 | 0.0 | 0.00 | 0.00 | 0.00 | 68 | 1013.8 | |
| 20260508082017 | 64 | 0.0 | 0.0 | 0.00 | 0.00 | 0.00 | 68 | 1013.7 | |
| 20260508081017 | 63 | 0.0 | 0.0 | 0.00 | 0.00 | 0.00 | 69 | 1013.6 | |
| 20260508080015 | 62 | 0.0 | 0.0 | 0.00 | 0.00 | 0.00 | 70 | 1013.5 | |
| 20260508075017 | 61 | 0.0 | 0.0 | 0.00 | 0.00 | 0.00 | 71 | 1013.4 | |
| 20260508074017 | 60 | 0.0 | 0.0 | 0.00 | 0.00 | 0.00 | 73 | 1013.3 | |
| 20260508073017 | 59 | 0.0 | 0.0 | 0.00 | 0.00 | 0.00 | 77 | 1013.2 | |
| 20260508072036 | 59 | 0.0 | 0.0 | 0.00 | 0.00 | 0.00 | 79 | 1013.2 | |
| 20260508071018 | 58 | 0.0 | 0.0 | 0.00 | 0.00 | 0.00 | 79 | 1013.1 | |
| 20260508070017 | 57 | 0.0 | 0.0 | 0.00 | 0.00 | 0.00 | 80 | 1013.1 | |
| 20260508065017 | 56 | 0.0 | 0.0 | 0.00 | 0.00 | 0.00 | 81 | 1013.1 | |
| 20260508064017 | 55 | 0.0 | 0.0 | 0.00 | 0.00 | 0.00 | 84 | 1013.0 | |
| 20260508063017 | 54 | 0.0 | 0.0 | 0.00 | 0.00 | 0.00 | 85 | 1013.1 | |
| 20260508062016 | 54 | 0.0 | 0.0 | 0.00 | 0.00 | 0.00 | 86 | 1013.1 | |
| 20260508061036 | 53 | 0.0 | 0.0 | 0.00 | 0.00 | 0.00 | 86 | 1013.0 | |
| 20260508060016 | 53 | 0.0 | 0.0 | 0.00 | 0.00 | 0.00 | 86 | 1013.0 | |
| 20260508055016 | 52 | 0.0 | 0.0 | 0.00 | 0.00 | 0.00 | 87 | 1013.0 | |
| 20260508054016 | 52 | 0.0 | 0.0 | 0.00 | 0.00 | 0.00 | 86 | 1012.9 | |
| 20260508053038 | 51 | 0.0 | 0.0 | 0.00 | 0.00 | 0.00 | 86 | 1012.8 | |
| 20260508052017 | 51 | 0.0 | 0.0 | 0.00 | 0.00 | 0.00 | 86 | 1012.8 | |
| 20260508051029 | 51 | 0.0 | 0.0 | 0.00 | 0.00 | 0.00 | 86 | 1012.7 | |
| 20260508050016 | 51 | 0.0 | 0.0 | 0.00 | 0.00 | 0.00 | 86 | 1012.6 | |
| 20260508045016 | 51 | 0.0 | 0.0 | 0.00 | 0.00 | 0.00 | 86 | 1012.6 | |
| 20260508044017 | 51 | 0.0 | 0.0 | 0.00 | 0.00 | 0.00 | 86 | 1012.5 | |
| 20260508043016 | 51 | 0.0 | 0.0 | 0.00 | 0.00 | 0.00 | 86 | 1012.4 | |
| 20260508042016 | 51 | 0.0 | 0.0 | 0.00 | 0.00 | 0.00 | 86 | 1012.4 | |
| 20260508041016 | 51 | 0.0 | 0.0 | 0.00 | 0.00 | 0.00 | 86 | 1012.3 | |
| 20260508040016 | 51 | 0.0 | 0.0 | 0.00 | 0.00 | 0.00 | 86 | 1012.2 | |
| 20260508035016 | 51 | 0.0 | 0.0 | 0.00 | 0.00 | 0.00 | 86 | 1012.4 | |
| 20260508034016 | 51 | 0.0 | 0.0 | 0.00 | 0.00 | 0.00 | 86 | 1012.5 | |
| 20260508033016 | 51 | 0.0 | 0.0 | 0.00 | 0.00 | 0.00 | 86 | 1012.3 | |
| 20260508032017 | 51 | 0.0 | 0.0 | 0.00 | 0.00 | 0.00 | 86 | 1012.2 | |
| 20260508031016 | 51 | 0.0 | 0.0 | 0.00 | 0.00 | 0.00 | 86 | 1012.2 | |
| 20260508030016 | 51 | 0.0 | 0.0 | 0.00 | 0.00 | 0.00 | 86 | 1012.2 | |
| 20260508025016 | 51 | 0.0 | 0.0 | 0.00 | 0.00 | 0.00 | 86 | 1012.2 | |
| 20260508024016 | 51 | 0.0 | 0.0 | 0.00 | 0.00 | 0.00 | 86 | 1012.2 | |
| 20260508023016 | 51 | 0.0 | 0.0 | 0.00 | 0.00 | 0.00 | 86 | 1012.2 | |
| 20260508022016 | 51 | 0.0 | 0.0 | 0.00 | 0.00 | 0.00 | 86 | 1012.4 | |
| 20260508021017 | 51 | 0.0 | 0.0 | 0.00 | 0.00 | 0.00 | 85 | 1012.4 | |
| 20260508020036 | 51 | 0.0 | 0.0 | 0.00 | 0.00 | 0.00 | 85 | 1012.4 | |
| 20260508015016 | 51 | 0.0 | 0.0 | 0.00 | 0.00 | 0.00 | 85 | 1012.4 | |
| 20260508014016 | 51 | 0.0 | 0.0 | 0.00 | 0.00 | 0.00 | 85 | 1012.5 | |
| 20260508013016 | 51 | 0.0 | 0.0 | 0.00 | 0.00 | 0.00 | 85 | 1012.6 | |
| 20260508012016 | 52 | 0.0 | 0.0 | 0.00 | 0.00 | 0.00 | 85 | 1012.7 | |
| 20260508011036 | 52 | 0.0 | 0.0 | 0.00 | 0.00 | 0.00 | 85 | 1012.8 | |
| 20260508010036 | 52 | 0.0 | 0.0 | 0.00 | 0.00 | 0.00 | 85 | 1012.8 | |
| 20260508005016 | 52 | 0.0 | 0.0 | 0.00 | 0.00 | 0.00 | 85 | 1012.9 | |
| 20260508004016 | 52 | 0.0 | 0.0 | 0.00 | 0.00 | 0.00 | 85 | 1012.9 | |
| 20260508003036 | 52 | 0.0 | 0.0 | 0.00 | 0.00 | 0.00 | 85 | 1013.0 | |
| 20260508002016 | 52 | 0.0 | 0.0 | 0.00 | 0.00 | 0.00 | 85 | 1013.1 | |
| 20260508001016 | 52 | 0.0 | 0.0 | 0.00 | 0.00 | 0.00 | 85 | 1013.1 | |
| 20260508000016 | 52 | 0.0 | 0.0 | 0.00 | 0.00 | 0.00 | 85 | 1013.2 | |
| 20260507235016 | 52 | 0.0 | 0.0 | 0.00 | 0.00 | 0.00 | 85 | 1013.2 | |
| 20260507234016 | 52 | 0.0 | 0.0 | 0.00 | 0.00 | 0.00 | 85 | 1013.4 | |
| 20260507233016 | 52 | 0.0 | 0.0 | 0.00 | 0.00 | 0.00 | 85 | 1013.6 | |
| 20260507232015 | 52 | 0.0 | 0.0 | 0.00 | 0.00 | 0.00 | 85 | 1013.7 | |
| 20260507231016 | 52 | 0.0 | 0.0 | 0.00 | 0.00 | 0.00 | 84 | 1013.7 | |
| 20260507230015 | 53 | 0.0 | 0.0 | 0.00 | 0.00 | 0.00 | 84 | 1013.7 | |
| 20260507225015 | 53 | 0.0 | 0.0 | 0.00 | 0.00 | 0.00 | 84 | 1013.7 | |
| 20260507224018 | 53 | 0.0 | 0.0 | 0.00 | 0.00 | 0.00 | 84 | 1013.8 | |
| 20260507223017 | 53 | 0.0 | 0.0 | 0.00 | 0.00 | 0.00 | 84 | 1013.7 | |
| 20260507222017 | 53 | 0.0 | 0.0 | 0.00 | 0.00 | 0.00 | 84 | 1013.8 | |
| 20260507221017 | 53 | 0.0 | 0.0 | 0.00 | 0.00 | 0.00 | 83 | 1013.8 | |
| 20260507220017 | 53 | 0.0 | 0.0 | 0.00 | 0.00 | 0.00 | 83 | 1013.8 | |
| 20260507215017 | 53 | 0.0 | 0.0 | 0.00 | 0.00 | 0.00 | 83 | 1013.6 | |
| 20260507214019 | 54 | 0.0 | 0.0 | 0.00 | 0.00 | 0.00 | 83 | 1013.6 | |
| 20260507213037 | 54 | 0.0 | 0.0 | 0.00 | 0.00 | 0.00 | 83 | 1013.6 | |
| 20260507212017 | 54 | 0.0 | 0.0 | 0.00 | 0.00 | 0.00 | 83 | 1013.5 | |
| 20260507211017 | 54 | 0.0 | 1.0 | 0.00 | 0.00 | 0.00 | 83 | 1013.6 | |
| 20260507210017 | 54 | 0.0 | 0.0 | 0.00 | 0.00 | 0.00 | 82 | 1013.4 | |
| 20260507205017 | 55 | 0.0 | 0.0 | 0.00 | 0.00 | 0.00 | 82 | 1013.4 | |
| 20260507204017 | 55 | 0.0 | 0.0 | 0.00 | 0.00 | 0.00 | 82 | 1013.4 | |
| 20260507203017 | 55 | 0.0 | 0.0 | 0.00 | 0.00 | 0.00 | 82 | 1013.3 | |
| 20260507202037 | 55 | 0.0 | 1.0 | 0.00 | 0.00 | 0.00 | 81 | 1013.2 | |
| 20260507201017 | 55 | 0.0 | 1.0 | 0.00 | 0.00 | 0.00 | 81 | 1013.1 | |
| 20260507200018 | 56 | 0.0 | 0.0 | 0.00 | 0.00 | 0.00 | 81 | 1013.0 | |
| 20260507195017 | 56 | 0.0 | 0.0 | 0.00 | 0.00 | 0.00 | 81 | 1013.0 | |
| 20260507194017 | 56 | 0.0 | 0.0 | 0.00 | 0.00 | 0.00 | 81 | 1013.1 | |
| 20260507193018 | 57 | 0.0 | 0.0 | 0.00 | 0.00 | 0.00 | 80 | 1013.0 | |
| 20260507192017 | 57 | 0.0 | 0.0 | 0.00 | 0.00 | 0.00 | 79 | 1012.8 | |
| 20260507191038 | 57 | 0.0 | 0.0 | 0.00 | 0.00 | 0.00 | 78 | 1012.7 | |
| 20260507190017 | 58 | 0.0 | 0.0 | 0.00 | 0.00 | 0.00 | 78 | 1012.5 | |
| 20260507185017 | 58 | 0.0 | 0.0 | 0.00 | 0.00 | 0.00 | 77 | 1012.2 | |
| 20260507184017 | 59 | 0.0 | 0.0 | 0.00 | 0.00 | 0.00 | 76 | 1012.3 | |
| 20260507183017 | 59 | 0.0 | 0.0 | 0.00 | 0.00 | 0.00 | 76 | 1012.1 | |
| 20260507182017 | 59 | 0.0 | 1.0 | 0.00 | 0.00 | 0.00 | 76 | 1012.0 | |
| 20260507181017 | 60 | 0.0 | 0.0 | 0.00 | 0.00 | 0.00 | 75 | 1012.0 | |
| 20260507180016 | 60 | 0.0 | 1.0 | 0.00 | 0.00 | 0.00 | 75 | 1012.0 | |
| 20260507175017 | 61 | 0.0 | 0.0 | 0.00 | 0.00 | 0.00 | 73 | 1012.0 | |
| 20260507174018 | 62 | 0.0 | 1.0 | 0.00 | 0.00 | 0.00 | 71 | 1011.9 | |
| 20260507173037 | 63 | 0.0 | 0.0 | 0.00 | 0.00 | 0.00 | 68 | 1011.9 |